Date String (YYYY-MM-DD hh:mm:ss) UTC,Instrument flags,Ambient pressure (hPa),Sample flow (lpm),Bypass flow (lpm),Sample temperature (°C),Ambient temperature (°C),ASC tube jacket temperature (°C),LED temperature (°C),Box temperature (°C),Sample RH (%),Span deviation,Mass concentration (μg/m³),Mass concentration (μg/m³),Mass concentration (μg/m³)
DateTimeUTC,F1_M11,P_M11,Q1_M11,Q2_M11,T1_M11,T2_M11,T3_M11,T4_M11,T5_M11,U1_M11,ZSPAN_M11,X0_M11,X2_M11,X1_M11
2021-11-26 21:00:00,,0825.5,4.99,0.00,30.2,27.8,00.0,39.3,31.7,07.4,0000.0,0004.42,0000.97,0000.64
2021-11-26 21:01:00,,0825.6,4.99,0.00,30.2,28.1,00.0,39.3,31.8,07.4,0000.0,0004.52,0001.00,0000.65
2021-11-26 21:02:00,,0825.6,5.00,0.00,30.2,28.3,00.0,39.3,31.7,07.4,0000.0,0004.24,0000.99,0000.65
2021-11-26 21:03:00,,0825.6,5.01,0.00,30.2,28.5,00.0,39.3,31.8,07.4,0000.0,0003.17,0001.00,0000.65
2021-11-26 21:04:00,,0825.6,4.99,0.00,30.2,28.7,00.0,39.3,31.9,07.4,0000.0,0001.95,0001.01,0000.66
2021-11-26 21:05:00,,0825.6,5.01,0.00,30.2,28.8,00.0,39.3,31.9,07.4,0000.0,0001.64,0000.98,0000.66
2021-11-26 21:06:00,,0825.6,5.00,0.00,30.2,28.9,00.0,39.3,31.9,07.4,0000.0,0001.64,0000.97,0000.66
2021-11-26 21:07:00,,0825.6,4.98,0.00,30.3,29.0,00.0,39.3,32.0,07.4,0000.0,0001.71,0001.00,0000.65
2021-11-26 21:08:00,,0825.6,5.01,0.00,30.3,29.1,00.0,39.3,32.0,07.4,0000.0,0001.71,0001.00,0000.65
2021-11-26 21:09:00,,0825.7,5.01,0.00,30.3,29.1,00.0,39.3,32.0,07.4,0000.0,0001.82,0001.04,0000.66
2021-11-26 21:10:00,,0825.6,4.99,0.00,30.3,29.2,00.0,39.3,32.1,07.3,0000.0,0001.78,0001.01,0000.64
2021-11-26 21:11:00,,0825.6,5.01,0.00,30.4,29.3,00.0,39.3,32.1,07.3,0000.0,0001.65,0000.97,0000.64
2021-11-26 21:12:00,,0825.7,4.99,0.00,30.4,29.3,00.0,39.3,32.1,07.3,0000.0,0001.63,0000.97,0000.64
2021-11-26 21:13:00,,0825.6,5.00,0.00,30.4,29.4,00.0,39.3,32.1,07.3,0000.0,0001.65,0000.97,0000.64
2021-11-26 21:14:00,,0825.6,4.99,0.00,30.4,29.4,00.0,39.3,32.1,07.2,0000.0,0001.57,0000.93,0000.63
2021-11-26 21:15:00,,0825.6,4.99,0.00,30.4,29.5,00.0,39.3,32.2,07.2,0000.0,0001.51,0000.92,0000.62
2021-11-26 21:16:00,,0825.6,5.01,0.00,30.5,29.5,00.0,39.4,32.2,07.2,0000.0,0001.53,0000.92,0000.61
2021-11-26 21:17:00,,0825.6,5.00,0.00,30.5,29.6,00.0,39.4,32.2,07.2,0000.0,0001.65,0000.97,0000.62
2021-11-26 21:18:00,,0825.6,4.99,0.00,30.5,29.6,00.0,39.4,32.3,07.2,0000.0,0001.73,0000.96,0000.62
2021-11-26 21:19:00,,0825.6,5.01,0.00,30.5,29.6,00.0,39.4,32.3,07.2,0000.0,0001.88,0000.96,0000.61
2021-11-26 21:20:00,,0825.6,5.00,0.00,30.6,29.7,00.0,39.4,32.3,07.0,0000.0,0001.83,0000.92,0000.60
2021-11-26 21:21:00,,0825.6,4.99,0.00,30.6,29.3,00.0,39.4,32.2,06.9,0000.0,0001.96,0000.93,0000.61
2021-11-26 21:22:00,,0825.6,5.02,0.00,30.5,27.5,00.0,39.4,31.8,06.9,0000.0,0002.12,0000.96,0000.62
2021-11-26 21:23:00,,0825.6,4.99,0.00,30.3,27.0,00.0,39.4,31.6,07.0,0000.0,0002.15,0000.94,0000.62
2021-11-26 21:24:00,,0825.6,5.00,0.00,30.3,27.2,00.0,39.4,31.7,07.0,0000.0,0002.19,0000.93,0000.61
2021-11-26 21:25:00,,0825.6,5.00,0.00,30.2,27.6,00.0,39.3,31.7,06.9,0000.0,0002.17,0000.93,0000.60
2021-11-26 21:26:00,,0825.5,4.99,0.00,30.2,28.0,00.0,39.3,31.7,07.0,0000.0,0004.04,0000.95,0000.60
2021-11-26 21:27:00,,0825.5,5.01,0.00,30.2,28.3,00.0,39.3,31.7,07.0,0000.0,0004.11,0000.95,0000.60
2021-11-26 21:28:00,,0825.5,5.00,0.00,30.2,28.5,00.0,39.3,31.8,07.0,0000.0,0004.03,0000.93,0000.59
2021-11-26 21:29:00,,0825.5,4.99,0.00,30.2,28.7,00.0,39.3,31.8,07.0,0000.0,0003.98,0000.92,0000.60
2021-11-26 21:30:00,,0825.5,5.00,0.00,30.2,28.8,00.0,39.3,31.9,07.0,0000.0,0003.92,0000.91,0000.60
2021-11-26 21:31:00,,0825.5,5.00,0.00,30.2,28.9,00.0,39.3,31.9,07.0,0000.0,0004.00,0000.93,0000.60
2021-11-26 21:32:00,,0825.5,5.01,0.00,30.3,29.0,00.0,39.3,32.0,07.1,0000.0,0004.09,0000.94,0000.59
2021-11-26 21:33:00,,0825.5,4.98,0.00,30.3,29.1,00.0,39.3,32.0,07.1,0000.0,0006.00,0000.96,0000.58
2021-11-26 21:34:00,,0825.5,5.01,0.00,30.3,29.2,00.0,39.3,32.0,07.1,0000.0,0005.97,0000.97,0000.58
2021-11-26 21:35:00,,0825.5,4.99,0.00,30.3,29.2,00.0,39.3,32.0,07.1,0000.0,0006.06,0001.02,0000.59
2021-11-26 21:36:00,,0825.5,5.01,0.00,30.4,29.3,00.0,39.3,32.0,07.1,0000.0,0006.12,0001.04,0000.59
2021-11-26 21:37:00,,0825.5,4.98,0.00,30.4,29.3,00.0,39.3,32.1,07.1,0000.0,0004.59,0001.03,0000.60
2021-11-26 21:38:00,,0825.5,5.02,0.00,30.4,29.4,00.0,39.3,32.1,07.1,0000.0,0004.37,0001.08,0000.60
2021-11-26 21:39:00,,0825.5,4.99,0.00,30.4,29.3,00.0,39.3,32.1,07.1,0000.0,0004.42,0001.11,0000.61
2021-11-26 21:40:00,,0825.4,5.01,0.00,30.4,27.5,00.0,39.3,31.7,07.1,0000.0,0004.43,0001.10,0000.60
2021-11-26 21:41:00,,0825.5,4.99,0.00,30.2,26.8,00.0,39.3,31.5,07.1,0000.0,0004.48,0001.11,0000.59
2021-11-26 21:42:00,,0825.5,4.99,0.00,30.1,27.0,00.0,39.3,31.5,07.2,0000.0,0004.33,0001.08,0000.59
2021-11-26 21:43:00,,0825.5,5.01,0.00,30.1,27.4,00.0,39.2,31.6,07.2,0000.0,0004.39,0001.10,0000.60
2021-11-26 21:44:00,,0825.5,5.00,0.00,30.1,27.7,00.0,39.2,31.6,07.2,0000.0,0002.48,0001.06,0000.60
2021-11-26 21:45:00,,0825.5,5.01,0.00,30.1,28.1,00.0,39.2,31.6,07.2,0000.0,0002.29,0001.07,0000.60
2021-11-26 21:46:00,,0825.5,4.99,0.00,30.1,28.3,00.0,39.1,31.7,07.2,0000.0,0002.21,0001.05,0000.60
2021-11-26 21:47:00,,0825.5,5.00,0.00,30.1,28.5,00.0,39.1,31.7,07.2,0000.0,0002.19,0001.03,0000.59
2021-11-26 21:48:00,,0825.5,4.99,0.00,30.1,28.6,00.0,39.1,31.8,07.2,0000.0,0002.21,0001.03,0000.59
2021-11-26 21:49:00,,0825.5,5.00,0.00,30.1,28.7,00.0,39.1,31.8,07.2,0000.0,0002.08,0000.98,0000.59
2021-11-26 21:50:00,,0825.5,5.00,0.00,30.1,28.8,00.0,39.1,31.9,07.2,0000.0,0002.05,0000.95,0000.58
2021-11-26 21:51:00,,0825.5,5.00,0.00,30.2,28.9,00.0,39.1,31.9,07.1,0000.0,0002.04,0000.95,0000.59
2021-11-26 21:52:00,,0825.5,4.99,0.00,30.2,28.9,00.0,39.1,31.9,07.1,0000.0,0001.77,0000.92,0000.59
2021-11-26 21:53:00,,0825.5,5.00,0.00,30.2,29.0,00.0,39.1,31.9,07.1,0000.0,0001.83,0000.94,0000.59
2021-11-26 21:54:00,,0825.5,4.98,0.00,30.2,29.0,00.0,39.2,31.9,07.1,0000.0,0001.73,0000.93,0000.59
2021-11-26 21:55:00,,0825.5,5.01,0.00,30.2,29.1,00.0,39.2,31.9,07.1,0000.0,0001.82,0000.97,0000.59
2021-11-26 21:56:00,,0825.5,5.01,0.00,30.3,29.1,00.0,39.2,32.0,07.2,0000.0,0001.82,0000.96,0000.60
2021-11-26 21:57:00,,0825.5,4.98,0.00,30.3,29.1,00.0,39.2,32.0,07.2,0000.0,0002.07,0000.97,0000.59
2021-11-26 21:58:00,,0825.5,5.01,0.00,30.3,29.2,00.0,39.2,32.0,07.1,0000.0,0003.01,0001.00,0000.60
2021-11-26 21:59:00,,0825.5,5.00,0.00,30.3,29.2,00.0,39.2,32.0,07.1,0000.0,0003.00,0001.01,0000.60
